FW2420 Weather Reports


Display with metric or nautical units.
time (UTC)temp
F
wind
direction
speed
MPH
gust
MPH
rain 1hr
in
rain 24hr
in
rain mn
in
humidity
%
barometer
mb
20260507153002 55 360 13.0 17.0 0.00 0.27 0.00 64 1018.3
20260507151601 52 360 13.0 18.0 0.00 0.27 0.00 68 1018.6
20260507150024 50 360 15.0 21.0 0.00 0.27 0.00 71 1018.8
20260507144527 48 360 15.0 19.0 0.00 0.27 0.00 73 1018.9
20260507143015 48 360 16.0 21.0 0.00 0.27 0.00 73 1018.9
20260507141512 47 360 14.0 20.0 0.00 0.27 0.00 76 1018.9
20260507140007 45 360 13.0 20.0 0.00 0.27 0.00 79 1018.8
20260507134503 43 360 15.0 21.0 0.00 0.27 0.00 80 1018.9
20260507133056 41 360 16.0 21.0 0.00 0.27 0.00 82 1019.1
20260507131552 39 360 14.0 18.0 0.00 0.27 0.00 84 1018.9
20260507130059 38 360 12.0 19.0 0.00 0.27 0.00 85 1019.0
20260507124557 36 360 14.0 20.0 0.00 0.27 0.00 86 1018.9
20260507123052 35 360 14.0 17.0 0.00 0.27 0.00 86 1018.8
20260507121545 35 360 14.0 18.0 0.00 0.27 0.00 87 1018.6
20260507120039 34 360 13.0 16.0 0.00 0.27 0.00 87 1018.9
20260507114535 34 360 12.0 18.0 0.00 0.27 0.00 87 1019.0
20260507113031 35 360 11.0 18.0 0.00 0.27 0.00 87 1019.0
20260507111531 35 360 12.0 17.0 0.00 0.27 0.00 87 1019.1
20260507110029 35 360 12.0 17.0 0.00 0.27 0.00 87 1019.2
20260507104529 35 360 12.0 18.0 0.00 0.27 0.00 87 1019.3
20260507103028 35 360 13.0 20.0 0.00 0.27 0.00 87 1019.3
20260507101535 36 360 14.0 21.0 0.00 0.27 0.00 87 1019.3
20260507100035 36 360 15.0 21.0 0.00 0.27 0.00 88 1019.3
20260507094521 35 360 12.0 18.0 0.00 0.27 0.00 88 1019.5
20260507093018 35 360 10.0 14.0 0.00 0.28 0.00 88 1019.9
20260507091519 35 360 8.0 13.0 0.00 0.28 0.00 88 1020.0
20260507090014 36 360 10.0 16.0 0.00 0.28 0.00 89 1020.0
20260507084513 36 360 11.0 16.0 0.00 0.28 0.00 89 1020.3
20260507083012 36 360 11.0 17.0 0.00 0.31 0.00 90 1020.5
20260507081508 36 360 11.0 17.0 0.00 0.31 0.00 90 1020.6
20260507080006 35 360 11.0 15.0 0.00 0.31 0.00 90 1020.7
20260507074505 35 360 9.0 13.0 0.00 0.31 0.00 91 1021.0
20260507073103 35 360 9.0 12.0 0.00 0.33 0.00 91 1021.1
20260507071556 34 360 8.0 12.0 0.00 0.33 0.00 91 1021.3
20260507070054 34 360 9.0 13.0 0.00 0.33 0.00 91 1021.5
20260507064551 34 360 7.0 12.0 0.00 0.33 0.00 91 1021.8
20260507063049 34 360 6.0 10.0 0.00 0.38 0.00 91 1022.1
20260507061544 35 360 5.0 10.0 0.00 0.38 0.00 91 1022.1
20260507060041 35 360 6.0 10.0 0.00 0.38 0.00 91 1022.3
20260507054542 35 360 6.0 10.0 0.00 0.38 0.00 91 1022.3
20260507053035 35 360 7.0 11.0 0.00 0.38 0.38 91 1022.4
20260507051536 35 360 7.0 11.0 0.00 0.38 0.38 91 1022.5
20260507050037 36 360 6.0 11.0 0.00 0.38 0.38 90 1022.4
20260507044538 35 360 7.0 10.0 0.00 0.38 0.38 90 1022.6
20260507043027 35 360 6.0 10.0 0.00 0.40 0.38 90 1022.7
20260507041531 35 360 5.0 9.0 0.00 0.40 0.38 90 1022.7
20260507040025 36 360 6.0 9.0 0.00 0.40 0.38 90 1022.7
20260507034523 35 360 6.0 9.0 0.00 0.40 0.38 90 1022.7
20260507033020 36 360 4.0 6.0 0.00 0.47 0.38 89 1022.8
20260507031525 36 360 4.0 6.0 0.00 0.47 0.38 89 1022.7
20260507030017 36 360 3.0 6.0 0.00 0.47 0.38 88 1022.6
20260507024519 37 360 3.0 5.0 0.00 0.47 0.38 88 1022.6
20260507023017 38 360 4.0 6.0 0.00 0.54 0.38 87 1022.4
20260507021515 38 360 3.0 6.0 0.00 0.54 0.38 86 1022.3
20260507020013 40 360 3.0 5.0 0.00 0.54 0.38 85 1022.1
20260507014517 40 360 2.0 8.0 0.00 0.54 0.38 84 1022.2
20260507013020 41 360 7.0 13.0 0.00 0.56 0.38 84 1022.2
20260507011517 42 360 8.0 12.0 0.00 0.56 0.38 84 1022.2
20260507010010 41 360 8.0 11.0 0.00 0.56 0.38 84 1022.0
20260507004523 42 360 9.0 12.0 0.00 0.56 0.38 84 1022.1
20260507003007 42 360 9.0 13.0 0.00 0.56 0.38 84 1022.1
20260507001504 42 360 7.0 10.0 0.00 0.56 0.38 84 1022.0
20260507000004 42 360 7.0 12.0 0.00 0.56 0.38 83 1021.9
20260506234502 42 360 7.0 11.0 0.00 0.56 0.38 83 1022.1
20260506233001 42 360 8.0 11.0 0.00 0.56 0.38 83 1022.1
20260506231600 42 360 7.0 11.0 0.00 0.56 0.38 83 1022.1
20260506230100 43 360 5.0 11.0 0.00 0.56 0.38 85 1022.2
20260506224555 42 360 6.0 10.0 0.00 0.56 0.38 86 1022.3
20260506223057 42 360 5.0 9.0 0.01 0.56 0.38 88 1022.0
20260506221550 41 360 5.0 9.0 0.01 0.56 0.38 88 1022.1
20260506220052 40 360 5.0 10.0 0.02 0.56 0.38 88 1022.5
20260506214549 40 360 4.0 8.0 0.02 0.56 0.38 87 1022.4
20260506213104 40 360 3.0 6.0 0.01 0.56 0.37 86 1022.6
20260506211519 40 360 1.0 5.0 0.01 0.56 0.37 86 1022.5
20260506210019 41 360 3.0 6.0 0.01 0.55 0.36 86 1022.6
20260506204514 41 103 0.0 2.0 0.01 0.55 0.36 88 1022.6
20260506203022 40 360 0.0 4.0 0.01 0.56 0.36 87 1022.7
20260506201529 40 360 2.0 5.0 0.01 0.56 0.36 88 1022.8
20260506200012 40 360 0.0 5.0 0.00 0.56 0.35 89 1022.6
20260506194549 40 360 0.0 5.0 0.00 0.56 0.35 91 1022.8
20260506193039 39 360 2.0 4.0 0.00 0.56 0.35 92 1022.7
20260506191540 38 360 3.0 5.0 0.00 0.56 0.35 92 1022.5
20260506190031 38 360 3.0 6.0 0.00 0.56 0.35 93 1022.9
20260506184528 37 360 1.0 4.0 0.01 0.56 0.35 93 1022.8
20260506183034 36 360 3.0 6.0 0.01 0.56 0.35 93 1023.0
20260506181556 36 360 2.0 5.0 0.02 0.56 0.35 93 1023.1
20260506180056 35 92 0.0 3.0 0.04 0.56 0.35 93 1023.1
20260506174552 35 360 1.0 3.0 0.04 0.56 0.34 93 1023.0
20260506173053 34 360 1.0 3.0 0.06 0.56 0.34 93 1023.0
20260506171554 34 360 1.0 3.0 0.06 0.54 0.32 93 1023.1
20260506170108 34 360 2.0 4.0 0.08 0.53 0.31 93 1022.9
20260506164547 34 360 2.0 3.0 0.09 0.52 0.30 93 1022.8
20260506163057 34 360 1.0 3.0 0.10 0.50 0.28 93 1022.7
20260506161544 34 360 2.0 4.0 0.10 0.48 0.26 93 1022.5
20260506160043 34 360 2.0 4.0 0.10 0.45 0.23 93 1022.5
20260506154541 34 360 2.0 3.0 0.09 0.43 0.21 93 1022.1